Погода в Краснолесье

Россия / Калининградская область     54°23′39″N   22°22′34″E
темп.,
°C
ветер,
м/с
пор.,
м/с
влажн.,
%
обл.,
%
осадки,
мм/ч
давл.,
гПа
погр.,
м
13 мая, чт
чт1323:00+12юв411760 0.0 1011243
02:00+10юв38820 0.0 1010135
05:00+9ююв11838 0.0 100817
08:00+14св4670100 0.0 1006351
11:00+12ссв3581100 0.2 1005369
14:00+16всв6670100 0.8 10021294
17:00+13св557354 0.2 1002735
20:00+9св248893 0.2 1002232
14 мая, пт
пт1423:00+10вюв269398 0.3 1001231
02:00+9юв259777 2.8 1001210
05:00+10юв2598100 1.4 1001349
08:00+11ююв2595100 1.6 1001444
11:00+13ю3587100 0.2 1001745
14:00+14ю3584100 0.6 1001507
17:00+16з346941 0.1 1002970
20:00+11зсз229011 0.1 100341
15 мая, сб
сб1523:00+8зсз1195100 0.0 100410
02:00+7з11975 0.0 100510
05:00+7зюз22975 0.0 100617
08:00+12зюз237733 0.0 1007342
11:00+14зюз347389 0.0 1008645
14:00+15з558071 0.7 1008733
17:00+14з458676 1.1 1008599
20:00+12з2293100 1.3 100817
16 мая, вс
вс1623:00+9юз22965 0.0 100936
02:00+8ю229465 0.0 101016
05:00+8ююв239495 0.0 101046
08:00+13ююв348297 0.0 1010323
11:00+18ююв345850 0.0 10091240
14:00+19ююв576039 0.5 10081635
17:00+18юв5871100 1.1 10061201
20:00+15юв51389100 3.8 1005374
17 мая, пн
пн1723:00+13ююз2698100 5.6 1005285
02:00+11зюз3698100 5.8 1006300
05:00+11ююз3697100 0.0 1007220
08:00+13юз46835 0.0 1009464
11:00+17юз34590 0.0 10091408
14:00+19юз244931 0.0 10082037
17:00+19ююв335331 0.0 10071731
20:00+14ююв22762 0.1 100715